TITAN 3C TRANSTAGE R/B, 2770

Orbit data source: Space-Track

TITAN 3C TRANSTAGE R/B, 2770 is space debris in HEO originally from a launch on Fri, 28 Apr 1967 UTC launched from the Air Force Eastern Test Range (AFETR). Debris objects in space refer to the collection of defunct objects orbiting the Earth. Examples of debris include non-operational satellites, rocket bodies, and fragments generated from explosions, collisions, or faulty payload assembly.

Loading next visibility...
Identifier
2770, 1967-040F
Orbit
HEO
Country
Flag of USUS
Related business
Manufacturer
Martin Marietta
Mission
Spacecraft
Bus & Motor
TRANSTAGE, Unknown motor
Mass
3,103 kg wet, 3,103 kg dry
Launch date (UTC)
1967-04-28 (59 years ago)
Launch vehicle
Unknown
Launch site
Air Force Eastern Test Range (AFETR)
Object type
Payload
Rocket body
Debris
Shape & HBR
Unknown
Radar Cross Section
Large (>1 m²)

Expand to show TLE details & history
Last TLE update: 2 days ago

TLE from 2 days ago
0 TITAN 3C TRANSTAGE R/B
1  2770U 67040F   26126.09737705 -.00000694  00000-0  00000+0 0  9997
2  2770  16.0233 208.8650 7925112 352.9852   0.5998  0.50947326 23094
Epoch: 2026-05-06T02:20Z
TLE epoch observation values (Epoch: 2026-05-06T02:20:13.377Z)
Latitude
-2.28835°
Longitude
-58.00871°
Altitude
7,195.857 km
Speed
7.26 km/s
True Right ascension
13h 24m 02s
True Declination
-2° 16' 52"
Sunlit
Object was in full shadow at epoch
Visualization orbit readout
Latitude
Unknown
Longitude
Unknown
Altitude
Unknown
Speed
Unknown
Apparent Right ascension
Unknown
Apparent Declination
Unknown
Sunlit
N/A
Visualization observer readout
Local Sidereal Time
19:59:04
Azimuth
Unknown
Elevation
Unknown
Doppler factor
Unknown
Orbital elements
Apogee altitude
112,326.246 km
Perigee altitude
7,362.268 km
Semi-major axis
66,222.394 km
Eccentricity
0.79251
Inclination
16.0233°
RAAN
208.865°
Arg. of periapsis
352.9852°
True anomaly
8.46924°
Mean anomaly
0.5998°
Eccentric anomaly
2.8861°
Mean motion
0.12736 °/min
Orbital period
2,826.61 mins
BSTAR
0
Loading maneuver chart data...
Computing Atmospheric mass density...
Loading historical data...
Loading historical data...
Loading historical data...
Loading historical data...
Loading historical data...
Loading historical data...
Loading historical data...

Documentation

Showing up to 5 results
|